Terminal Aerodrome Forecast
Issued by NWS Louisville, KY

Home | Current Version | Previous Version | Text Only | Print | Product List | Glossary On
Versions: 1 2 3 4 5 6 7 8 9 10 11 12 13 14 15 16 17 18 19 20 21 22
000
FTUS43 KLMK 161400 AAA
TAFBWG
TAF AMD
KBWG 161434Z 1615/1712 25012G18KT P6SM BKN020
      TEMPO 1615/1617 SCT020 BKN035
     FM162000 27009KT P6SM BKN021=

USA.gov is the U.S. government's official web portal to all federal, state and local government web resources and services.